Time,TemperatureF,DewpointF,PressureIn,WindDirection,WindDirectionDegrees,WindSpeedMPH,WindSpeedGustMPH,Humidity,HourlyPrecipIn,Conditions,Clouds,dailyrainin,SoftwareType,DateUTC
2013-01-22 00:04:00,-1.8,-5.0,30.02,NE,40,0.0,1.0,86,0.00,,,0.00,weatherlink.com 1.10,2013-01-22 05:04:00,
2013-01-22 00:19:00,-2.0,-5.0,30.03,NNE,16,1.0,3.0,87,0.00,,,0.00,weatherlink.com 1.10,2013-01-22 05:19:00,
2013-01-22 00:34:00,-2.3,-6.0,30.03,NNW,347,0.0,3.0,86,0.00,,,0.00,weatherlink.com 1.10,2013-01-22 05:34:00,
2013-01-22 00:49:00,-2.9,-6.0,30.04,North,355,2.0,2.0,85,0.00,,,0.00,weatherlink.com 1.10,2013-01-22 05:49:00,
2013-01-22 01:04:00,-3.2,-7.0,30.04,NNW,340,1.0,3.0,85,0.00,,,0.00,weatherlink.com 1.10,2013-01-22 06:04:00,
2013-01-22 01:20:00,-3.6,-7.0,30.04,NNW,329,2.0,5.0,84,0.00,,,0.00,weatherlink.com 1.10,2013-01-22 06:20:00,
2013-01-22 01:35:00,-4.1,-8.0,30.05,NNE,27,2.0,4.0,84,0.00,,,0.00,weatherlink.com 1.10,2013-01-22 06:35:00,
2013-01-22 01:50:00,-4.5,-8.0,30.05,NNE,32,1.0,3.0,84,0.00,,,0.00,weatherlink.com 1.10,2013-01-22 06:50:00,
2013-01-22 02:05:00,-4.7,-8.0,30.05,NNE,15,0.0,3.0,84,0.00,,,0.00,weatherlink.com 1.10,2013-01-22 07:05:00,
2013-01-22 02:20:00,-5.1,-9.0,30.06,North,5,0.0,3.0,83,0.00,,,0.00,weatherlink.com 1.10,2013-01-22 07:20:00,
2013-01-22 02:35:00,-5.4,-10.0,30.07,North,352,0.0,2.0,82,0.00,,,0.00,weatherlink.com 1.10,2013-01-22 07:35:00,
2013-01-22 02:50:00,-5.9,-10.0,30.07,NNE,13,0.0,2.0,82,0.00,,,0.00,weatherlink.com 1.10,2013-01-22 07:50:00,
2013-01-22 03:05:00,-6.1,-11.0,30.07,NW,325,1.0,2.0,81,0.00,,,0.00,weatherlink.com 1.10,2013-01-22 08:05:00,
2013-01-22 03:20:00,-6.7,-11.0,30.08,NW,316,0.0,2.0,82,0.00,,,0.00,weatherlink.com 1.10,2013-01-22 08:20:00,
2013-01-22 03:35:00,-6.9,-11.0,30.08,NW,311,0.0,2.0,81,0.00,,,0.00,weatherlink.com 1.10,2013-01-22 08:35:00,
2013-01-22 03:50:00,-7.9,-12.0,30.09,NNE,14,0.0,1.0,81,0.00,,,0.00,weatherlink.com 1.10,2013-01-22 08:50:00,
2013-01-22 04:05:00,-8.3,-12.0,30.09,NNW,333,1.0,3.0,82,0.00,,,0.00,weatherlink.com 1.10,2013-01-22 09:05:00,
2013-01-22 04:20:00,-8.6,-13.0,30.10,NE,39,1.0,3.0,82,0.00,,,0.00,weatherlink.com 1.10,2013-01-22 09:20:00,
2013-01-22 04:35:00,-9.1,-13.0,30.10,NW,323,0.0,3.0,82,0.00,,,0.00,weatherlink.com 1.10,2013-01-22 09:35:00,
2013-01-22 04:51:00,-9.5,-14.0,30.11,NNW,332,0.0,3.0,82,0.00,,,0.00,weatherlink.com 1.10,2013-01-22 09:51:00,
2013-01-22 05:06:00,-9.7,-14.0,30.11,North,353,0.0,4.0,82,0.00,,,0.00,weatherlink.com 1.10,2013-01-22 10:06:00,
2013-01-22 05:21:00,-10.0,-14.0,30.11,NE,41,3.0,3.0,82,0.00,,,0.00,weatherlink.com 1.10,2013-01-22 10:21:00,
2013-01-22 05:36:00,-10.2,-14.0,30.12,NNW,338,0.0,3.0,82,0.00,,,0.00,weatherlink.com 1.10,2013-01-22 10:36:00,
2013-01-22 05:51:00,-11.3,-15.0,30.12,NNW,338,0.0,1.0,82,0.00,,,0.00,weatherlink.com 1.10,2013-01-22 10:51:00,
2013-01-22 06:06:00,-11.8,-16.0,30.13,WNW,302,0.0,2.0,83,0.00,,,0.00,weatherlink.com 1.10,2013-01-22 11:06:00,
2013-01-22 06:21:00,-12.0,-16.0,30.13,NE,39,0.0,1.0,83,0.00,,,0.00,weatherlink.com 1.10,2013-01-22 11:21:00,
2013-01-22 06:36:00,-13.6,-18.0,30.14,ENE,71,0.0,2.0,82,0.00,,,0.00,weatherlink.com 1.10,2013-01-22 11:36:00,
2013-01-22 06:51:00,-15.5,-19.0,30.14,ENE,71,0.0,0.0,82,0.00,,,0.00,weatherlink.com 1.10,2013-01-22 11:51:00,
2013-01-22 07:06:00,-15.9,-20.0,30.15,ENE,71,0.0,0.0,83,0.00,,,0.00,weatherlink.com 1.10,2013-01-22 12:06:00,
2013-01-22 07:21:00,-15.3,-19.0,30.16,East,85,0.0,1.0,84,0.00,,,0.00,weatherlink.com 1.10,2013-01-22 12:21:00,
2013-01-22 07:36:00,-15.4,-19.0,30.16,ENE,71,1.0,1.0,84,0.00,,,0.00,weatherlink.com 1.10,2013-01-22 12:36:00,
2013-01-22 07:52:00,-14.9,-18.0,30.17,ENE,71,0.0,1.0,84,0.00,,,0.00,weatherlink.com 1.10,2013-01-22 12:52:00,
2013-01-22 08:07:00,-15.8,-20.0,30.18,ENE,71,0.0,0.0,83,0.00,,,0.00,weatherlink.com 1.10,2013-01-22 13:07:00,
2013-01-22 08:22:00,-16.4,-20.0,30.18,ENE,70,0.0,1.0,84,0.00,,,0.00,weatherlink.com 1.10,2013-01-22 13:22:00,
2013-01-22 08:37:00,-15.5,-19.0,30.19,ENE,63,0.0,1.0,84,0.00,,,0.00,weatherlink.com 1.10,2013-01-22 13:37:00,
2013-01-22 08:52:00,-14.0,-17.0,30.19,ENE,65,0.0,2.0,84,0.00,,,0.00,weatherlink.com 1.10,2013-01-22 13:52:00,
2013-01-22 09:07:00,-13.7,-17.0,30.20,NE,44,0.0,1.0,83,0.00,,,0.00,weatherlink.com 1.10,2013-01-22 14:07:00,
2013-01-22 09:22:00,-13.2,-17.0,30.20,ENE,72,0.0,5.0,81,0.00,,,0.00,weatherlink.com 1.10,2013-01-22 14:22:00,
2013-01-22 09:37:00,-12.8,-18.0,30.21,East,95,0.0,2.0,79,0.00,,,0.00,weatherlink.com 1.10,2013-01-22 14:37:00,
2013-01-22 09:52:00,-11.9,-17.0,30.22,ENE,68,0.0,5.0,77,0.00,,,0.00,weatherlink.com 1.10,2013-01-22 14:52:00,
2013-01-22 10:07:00,-11.1,-17.0,30.22,ENE,58,0.0,2.0,76,0.00,,,0.00,weatherlink.com 1.10,2013-01-22 15:07:00,
2013-01-22 10:22:00,-10.6,-18.0,30.23,ENE,63,4.0,4.0,71,0.00,,,0.00,weatherlink.com 1.10,2013-01-22 15:22:00,
2013-01-22 10:37:00,-10.0,-17.0,30.23,ENE,57,3.0,4.0,70,0.00,,,0.00,weatherlink.com 1.10,2013-01-22 15:37:00,
2013-01-22 10:52:00,-9.7,-18.0,30.23,ENE,74,0.0,3.0,68,0.00,,,0.00,weatherlink.com 1.10,2013-01-22 15:52:00,
2013-01-22 11:07:00,-9.2,-18.0,30.24,ENE,75,2.0,4.0,66,0.00,,,0.00,weatherlink.com 1.10,2013-01-22 16:07:00,
2013-01-22 11:23:00,-9.1,-18.0,30.24,ENE,60,4.0,4.0,65,0.00,,,0.00,weatherlink.com 1.10,2013-01-22 16:23:00,
2013-01-22 11:38:00,-8.6,-18.0,30.25,ENE,71,1.0,4.0,64,0.00,,,0.00,weatherlink.com 1.10,2013-01-22 16:38:00,
2013-01-22 11:53:00,-8.3,-18.0,30.24,NNE,24,3.0,4.0,64,0.00,,,0.00,weatherlink.com 1.10,2013-01-22 16:53:00,
2013-01-22 12:08:00,-7.8,-17.0,30.23,ENE,58,1.0,6.0,65,0.00,,,0.00,weatherlink.com 1.10,2013-01-22 17:08:00,
2013-01-22 12:23:00,-7.2,-17.0,30.23,NE,34,4.0,5.0,62,0.00,,,0.00,weatherlink.com 1.10,2013-01-22 17:23:00,
2013-01-22 12:38:00,-6.5,-16.0,30.23,NE,37,0.0,4.0,62,0.00,,,0.00,weatherlink.com 1.10,2013-01-22 17:38:00,
2013-01-22 12:53:00,-6.0,-16.0,30.23,East,85,0.0,5.0,61,0.00,,,0.00,weatherlink.com 1.10,2013-01-22 17:53:00,
2013-01-22 13:08:00,-5.6,-16.0,30.23,ESE,108,0.0,4.0,60,0.00,,,0.00,weatherlink.com 1.10,2013-01-22 18:08:00,
2013-01-22 13:23:00,-3.9,-14.0,30.23,NNW,338,1.0,4.0,62,0.00,,,0.00,weatherlink.com 1.10,2013-01-22 18:23:00,
2013-01-22 13:38:00,-3.1,-14.0,30.23,NE,43,1.0,4.0,61,0.00,,,0.00,weatherlink.com 1.10,2013-01-22 18:38:00,
2013-01-22 13:53:00,-3.4,-15.0,30.23,WNW,291,2.0,6.0,57,0.00,,,0.00,weatherlink.com 1.10,2013-01-22 18:53:00,
2013-01-22 14:08:00,-3.6,-15.0,30.23,NE,56,1.0,5.0,58,0.00,,,0.00,weatherlink.com 1.10,2013-01-22 19:08:00,
2013-01-22 14:23:00,-2.6,-14.0,30.23,NNE,33,0.0,5.0,58,0.00,,,0.00,weatherlink.com 1.10,2013-01-22 19:23:00,
2013-01-22 14:39:00,-2.1,-14.0,30.23,NNE,32,0.0,4.0,56,0.00,,,0.00,weatherlink.com 1.10,2013-01-22 19:39:00,
2013-01-22 14:54:00,-2.8,-15.0,30.24,NE,52,0.0,3.0,55,0.00,,,0.00,weatherlink.com 1.10,2013-01-22 19:54:00,
2013-01-22 15:09:00,-2.3,-14.0,30.24,NNW,329,0.0,4.0,58,0.00,,,0.00,weatherlink.com 1.10,2013-01-22 20:09:00,
2013-01-22 15:24:00,-2.6,-14.0,30.24,East,80,0.0,4.0,57,0.00,,,0.00,weatherlink.com 1.10,2013-01-22 20:24:00,
2013-01-22 15:39:00,-1.2,-14.0,30.24,North,358,1.0,3.0,56,0.00,,,0.00,weatherlink.com 1.10,2013-01-22 20:39:00,
2013-01-22 15:54:00,-2.0,-14.0,30.24,NNW,334,0.0,2.0,57,0.00,,,0.00,weatherlink.com 1.10,2013-01-22 20:54:00,
2013-01-22 16:09:00,-1.4,-13.0,30.24,ENE,74,0.0,1.0,57,0.00,,,0.00,weatherlink.com 1.10,2013-01-22 21:09:00,
2013-01-22 16:24:00,-2.7,-15.0,30.24,East,81,0.0,2.0,57,0.00,,,0.00,weatherlink.com 1.10,2013-01-22 21:24:00,
2013-01-22 16:39:00,-2.2,-14.0,30.23,SE,138,0.0,0.0,58,0.00,,,0.00,weatherlink.com 1.10,2013-01-22 21:39:00,
2013-01-22 16:54:00,-1.6,-14.0,30.24,North,349,0.0,1.0,56,0.00,,,0.00,weatherlink.com 1.10,2013-01-22 21:54:00,
2013-01-22 17:09:00,-5.4,-15.0,30.24,ENE,59,0.0,1.0,62,0.00,,,0.00,weatherlink.com 1.10,2013-01-22 22:09:00,
2013-01-22 17:24:00,-7.2,-16.0,30.24,NE,54,0.0,2.0,66,0.00,,,0.00,weatherlink.com 1.10,2013-01-22 22:24:00,
2013-01-22 17:39:00,-8.4,-17.0,30.24,NE,53,0.0,0.0,67,0.00,,,0.00,weatherlink.com 1.10,2013-01-22 22:39:00,
2013-01-22 17:55:00,-11.1,-18.0,30.25,NE,54,0.0,0.0,70,0.00,,,0.00,weatherlink.com 1.10,2013-01-22 22:55:00,
2013-01-22 18:10:00,-12.0,-18.0,30.25,NE,54,0.0,0.0,76,0.00,,,0.00,weatherlink.com 1.10,2013-01-22 23:10:00,
2013-01-22 18:25:00,-13.5,-19.0,30.25,NE,54,0.0,0.0,75,0.00,,,0.00,weatherlink.com 1.10,2013-01-22 23:25:00,
2013-01-22 18:40:00,-15.4,-21.0,30.25,NE,54,0.0,0.0,77,0.00,,,0.00,weatherlink.com 1.10,2013-01-22 23:40:00,
2013-01-22 18:55:00,-15.4,-20.0,30.25,NE,54,0.0,0.0,80,0.00,,,0.00,weatherlink.com 1.10,2013-01-22 23:55:00,
2013-01-22 19:10:00,-16.2,-21.0,30.25,NE,54,0.0,0.0,80,0.00,,,0.00,weatherlink.com 1.10,2013-01-23 00:10:00,
2013-01-22 19:25:00,-16.3,-20.0,30.25,NE,54,0.0,0.0,81,0.00,,,0.00,weatherlink.com 1.10,2013-01-23 00:25:00,
2013-01-22 19:40:00,-16.3,-20.0,30.25,NE,54,0.0,0.0,81,0.00,,,0.00,weatherlink.com 1.10,2013-01-23 00:40:00,
2013-01-22 19:55:00,-16.1,-20.0,30.25,West,266,0.0,0.0,82,0.00,,,0.00,weatherlink.com 1.10,2013-01-23 00:55:00,
2013-01-22 20:10:00,-15.9,-20.0,30.25,West,266,0.0,0.0,82,0.00,,,0.00,weatherlink.com 1.10,2013-01-23 01:10:00,
2013-01-22 20:25:00,-16.4,-21.0,30.25,West,267,0.0,1.0,81,0.00,,,0.00,weatherlink.com 1.10,2013-01-23 01:25:00,
2013-01-22 20:40:00,-16.8,-21.0,30.24,West,267,0.0,0.0,82,0.00,,,0.00,weatherlink.com 1.10,2013-01-23 01:40:00,
2013-01-22 20:55:00,-16.5,-20.0,30.24,WNW,295,0.0,0.0,82,0.00,,,0.00,weatherlink.com 1.10,2013-01-23 01:55:00,
2013-01-22 21:10:00,-16.2,-20.0,30.24,WNW,296,0.0,0.0,82,0.00,,,0.00,weatherlink.com 1.10,2013-01-23 02:10:00,
2013-01-22 21:25:00,-16.2,-20.0,30.24,WNW,295,0.0,0.0,82,0.00,,,0.00,weatherlink.com 1.10,2013-01-23 02:25:00,
2013-01-22 21:40:00,-15.8,-20.0,30.24,WNW,295,0.0,0.0,82,0.00,,,0.00,weatherlink.com 1.10,2013-01-23 02:40:00,
2013-01-22 21:55:00,-15.7,-20.0,30.23,WNW,297,0.0,0.0,82,0.00,,,0.00,weatherlink.com 1.10,2013-01-23 02:55:00,
2013-01-22 22:10:00,-15.8,-20.0,30.23,WNW,295,0.0,0.0,83,0.00,,,0.00,weatherlink.com 1.10,2013-01-23 03:10:00,
2013-01-22 22:25:00,-16.1,-20.0,30.23,WNW,295,0.0,0.0,83,0.00,,,0.00,weatherlink.com 1.10,2013-01-23 03:25:00,
2013-01-22 22:40:00,-16.1,-20.0,30.23,WNW,299,0.0,0.0,82,0.00,,,0.00,weatherlink.com 1.10,2013-01-23 03:40:00,
2013-01-22 22:55:00,-15.7,-19.0,30.23,WNW,300,0.0,0.0,83,0.00,,,0.00,weatherlink.com 1.10,2013-01-23 03:55:00,
2013-01-22 23:10:00,-15.4,-19.0,30.23,WNW,301,0.0,0.0,83,0.00,,,0.00,weatherlink.com 1.10,2013-01-23 04:10:00,
2013-01-22 23:25:00,-14.5,-18.0,30.23,WNW,301,0.0,0.0,84,0.00,,,0.00,weatherlink.com 1.10,2013-01-23 04:25:00,
2013-01-22 23:40:00,-13.1,-16.0,30.23,NE,47,0.0,0.0,86,0.00,,,0.00,weatherlink.com 1.10,2013-01-23 04:40:00,
2013-01-22 23:56:00,-12.4,-15.0,30.23,West,267,0.0,0.0,86,0.00,,,0.00,weatherlink.com 1.10,2013-01-23 04:56:00,